�N����,����,�~����,�C��,���x,�C��,����,���ϕ���,�ő�u�ԕ���,�ő厞����,���˗�,�I�_���x,�n�����x,�ő啗���N��,DTYPE
"19/04/23","00:10",0.0,13.1,70.4,1012.1,331.1,3.6,7.0,324.4,0.00,7.9,15.5,"00:07:06",1
"19/04/23","00:20",0.0,13.1,70.6,1012.1,323.5,3.4,6.8,336.7,0.00,7.9,15.6,"00:15:30",1
"19/04/23","00:30",0.0,13.0,71.0,1011.9,287.0,2.1,4.1,326.8,0.00,7.9,15.6,"00:21:36",1
"19/04/23","00:40",0.0,12.9,71.5,1011.6,302.9,2.1,4.1,317.6,0.00,7.9,15.4,"00:35:32",1
"19/04/23","00:50",0.0,12.8,72.0,1012.1,327.6,2.5,3.6,332.1,0.00,7.9,15.5,"00:49:36",1
"19/04/23","01:00",0.0,12.8,72.8,1011.6,324.7,3.0,7.1,331.7,0.00,8.1,15.4,"00:59:48",1
"19/04/23","01:10",0.0,12.8,72.8,1011.9,333.0,4.6,6.8,332.2,0.00,8.1,15.3,"01:00:40",1
"19/04/23","01:20",0.0,12.5,73.1,1012.1,332.7,3.2,4.8,327.4,0.00,7.9,15.2,"01:12:32",1
"19/04/23","01:30",0.0,12.4,74.9,1012.1,333.1,3.5,4.8,344.1,0.00,8.1,15.2,"01:22:50",1
"19/04/23","01:40",0.0,12.3,75.2,1011.9,331.4,3.4,5.6,331.0,0.00,8.1,15.3,"01:31:46",1
"19/04/23","01:50",0.0,12.1,75.9,1012.1,335.0,2.5,4.2,342.8,0.00,8.0,15.2,"01:40:24",1
"19/04/23","02:00",0.0,12.0,77.1,1012.3,335.7,2.2,3.4,341.1,0.00,8.2,15.1,"01:59:32",1
"19/04/23","02:10",0.0,12.1,76.8,1012.1,328.7,3.2,5.9,336.7,0.00,8.2,15.0,"02:07:40",1
"19/04/23","02:20",0.0,12.1,76.8,1011.6,333.0,3.4,4.9,335.1,0.00,8.2,14.9,"02:12:32",1
"19/04/23","02:30",0.0,11.9,77.3,1012.1,330.5,3.1,4.7,329.0,0.00,8.1,14.8,"02:28:50",1
"19/04/23","02:40",0.0,11.8,77.6,1011.9,334.2,2.8,4.7,338.0,0.00,8.1,14.9,"02:37:28",1
"19/04/23","02:50",0.0,11.9,78.1,1012.3,329.0,3.1,4.8,322.9,0.00,8.2,14.7,"02:45:16",1
"19/04/23","03:00",0.0,11.8,77.9,1011.9,331.3,2.7,4.8,318.9,0.00,8.1,14.8,"02:52:16",1
"19/04/23","03:10",0.0,11.6,78.6,1012.3,329.9,3.2,5.8,339.8,0.00,8.1,14.7,"03:06:58",1
"19/04/23","03:20",0.0,11.6,79.2,1012.3,325.0,3.1,5.5,336.2,0.00,8.2,14.5,"03:11:12",1
"19/04/23","03:30",0.0,11.5,79.3,1012.6,329.2,3.2,4.9,340.8,0.00,8.1,14.6,"03:20:02",1
"19/04/23","03:40",0.0,11.4,79.8,1012.6,329.4,2.7,4.9,332.3,0.00,8.1,14.6,"03:30:08",1
"19/04/23","03:50",0.0,11.1,80.6,1012.6,332.5,2.5,3.9,330.6,0.00,7.9,14.4,"03:40:08",1
"19/04/23","04:00",0.0,11.0,81.0,1012.8,330.6,2.3,3.5,330.3,0.00,7.9,14.5,"03:50:16",1
"19/04/23","04:10",0.0,10.8,81.9,1012.6,332.6,2.3,3.4,335.2,0.00,7.9,14.2,"04:01:12",1
"19/04/23","04:20",0.0,10.7,83.0,1012.1,329.7,2.6,3.6,336.7,0.00,8.0,14.3,"04:13:04",1
"19/04/23","04:30",0.0,10.5,83.2,1012.3,297.5,1.8,3.1,334.8,0.00,7.8,14.2,"04:22:08",1
"19/04/23","04:40",0.0,10.3,83.9,1012.6,292.2,1.8,3.1,292.9,0.00,7.7,14.1,"04:37:36",1
"19/04/23","04:50",0.0,10.1,84.2,1012.6,300.8,2.0,2.9,306.9,0.00,7.6,14.3,"04:44:40",1
"19/04/23","05:00",0.0,10.1,85.1,1012.8,290.3,2.1,3.4,325.1,0.00,7.8,14.3,"04:54:16",1
"19/04/23","05:10",0.0,10.1,85.4,1012.8,292.7,2.3,3.7,330.9,0.00,7.8,14.1,"05:07:12",1
"19/04/23","05:20",0.0,10.2,85.9,1013.0,282.8,1.6,3.1,309.4,0.00,8.0,14.0,"05:14:00",1
"19/04/23","05:30",0.0,10.3,85.7,1013.0,310.5,1.6,2.8,331.0,0.00,8.1,13.9,"05:21:04",1
"19/04/23","05:40",0.0,10.2,85.5,1013.0,338.4,1.3,3.2,314.9,0.00,7.9,13.8,"05:33:20",1
"19/04/23","05:50",0.0,9.9,85.8,1013.0,330.8,1.6,2.4,326.1,0.00,7.7,14.1,"05:45:52",1
"19/04/23","06:00",0.0,9.7,87.5,1013.0,297.3,1.2,1.9,325.9,0.00,7.8,13.9,"05:50:56",1
"19/04/23","06:10",0.0,9.8,87.6,1013.0,292.3,1.1,1.6,272.2,0.00,7.9,13.7,"06:07:44",1
"19/04/23","06:20",0.0,10.3,87.8,1012.8,289.0,1.5,1.6,294.5,0.01,8.4,13.8,"06:12:16",1
"19/04/23","06:30",0.0,10.8,87.4,1013.0,301.4,1.6,2.0,321.9,0.02,8.8,13.9,"06:21:36",1
"19/04/23","06:40",0.0,11.4,87.0,1013.3,326.1,1.2,2.1,321.6,0.03,9.4,13.6,"06:31:20",1
"19/04/23","06:50",0.0,11.7,85.7,1013.3,330.0,1.1,1.7,332.5,0.04,9.4,13.8,"06:42:00",1
"19/04/23","07:00",0.0,12.3,85.5,1013.5,326.6,0.5,1.3,322.1,0.05,10.0,14.1,"06:50:40",1
"19/04/23","07:10",0.0,13.0,83.6,1013.8,293.1,0.6,1.2,309.3,0.08,10.3,14.1,"07:08:00",1
"19/04/23","07:20",0.0,14.0,77.5,1013.8,321.5,0.8,1.7,315.8,0.10,10.2,14.1,"07:13:36",1
"19/04/23","07:30",0.0,14.5,76.9,1013.5,316.0,0.5,1.3,321.3,0.11,10.5,14.3,"07:20:16",1
"19/04/23","07:40",0.0,15.4,74.2,1013.8,329.8,0.6,1.8,341.1,0.11,10.9,14.2,"07:32:08",1
"19/04/23","07:50",0.0,16.0,72.6,1013.8,310.9,0.3,1.0,327.2,0.12,11.1,14.7,"07:40:16",1
"19/04/23","08:00",0.0,16.5,71.8,1014.0,4.3,0.6,2.8,343.7,0.14,11.4,14.4,"07:52:32",1
"19/04/23","08:10",0.0,17.5,69.9,1014.0,337.6,0.5,1.4,337.0,0.18,12.0,14.7,"08:02:00",1
"19/04/23","08:20",0.0,18.3,66.7,1014.0,315.5,0.3,0.9,192.8,0.22,12.0,14.8,"08:12:24",1
"19/04/23","08:30",0.0,18.5,65.2,1013.3,168.7,0.5,1.8,155.3,0.22,11.9,15.0,"08:29:12",1
"19/04/23","08:40",0.0,19.0,66.5,1013.5,233.9,1.0,1.9,230.0,0.22,12.7,15.2,"08:39:20",1
"19/04/23","08:50",0.0,19.6,65.7,1013.5,180.6,0.3,1.0,181.0,0.24,13.1,15.3,"08:46:32",1
"19/04/23","09:00",0.0,20.1,67.5,1013.5,144.9,1.3,3.3,112.0,0.27,13.9,15.5,"08:59:20",1
"19/04/23","09:10",0.0,20.3,69.6,1013.0,120.2,2.2,4.4,117.9,0.30,14.6,15.7,"09:01:28",1
"19/04/23","09:20",0.0,20.7,66.3,1013.0,105.4,2.0,4.7,117.7,0.33,14.2,15.9,"09:18:24",1
"19/04/23","09:30",0.0,20.9,66.9,1013.3,99.7,2.2,4.8,103.3,0.35,14.6,16.0,"09:21:36",1
"19/04/23","09:40",0.0,21.5,66.4,1012.8,90.4,2.0,3.7,122.7,0.38,15.0,16.2,"09:30:08",1
"19/04/23","09:50",0.0,21.0,68.3,1013.0,121.4,3.4,7.0,120.3,0.37,15.0,16.5,"09:43:28",1
"19/04/23","10:00",0.0,21.4,66.3,1012.6,110.4,3.0,5.5,116.7,0.37,14.9,16.7,"09:54:00",1
"19/04/23","10:10",0.0,21.7,64.6,1012.8,106.3,2.3,4.7,144.6,0.39,14.8,17.0,"10:03:28",1
"19/04/23","10:20",0.0,21.9,66.0,1012.6,119.7,2.7,5.9,100.5,0.38,15.3,17.2,"10:14:16",1
"19/04/23","10:30",0.0,22.3,64.2,1012.3,108.5,2.3,6.3,122.6,0.40,15.3,17.5,"10:26:32",1
"19/04/23","10:40",0.0,22.4,62.6,1012.8,95.7,2.5,4.4,119.7,0.40,15.0,17.6,"10:30:56",1
"19/04/23","10:50",0.0,22.2,64.2,1012.3,120.0,2.5,6.0,136.4,0.40,15.2,17.7,"10:48:24",1
"19/04/23","11:00",0.0,22.6,64.0,1012.3,115.7,2.7,6.3,124.6,0.37,15.5,17.8,"10:50:32",1
"19/04/23","11:10",0.0,22.6,63.5,1012.3,102.8,2.8,5.7,123.6,0.40,15.4,18.1,"11:05:12",1
"19/04/23","11:20",0.0,23.0,63.1,1012.3,88.1,2.5,5.2,100.7,0.43,15.6,18.4,"11:11:44",1
"19/04/23","11:30",0.0,23.2,63.8,1012.1,102.0,2.7,4.8,122.9,0.46,16.0,18.4,"11:20:40",1
"19/04/23","11:40",0.0,23.4,61.3,1011.9,112.1,2.5,6.6,121.4,0.48,15.6,18.6,"11:31:44",1
"19/04/23","11:50",0.0,23.1,62.6,1011.4,106.5,2.5,5.2,121.2,0.42,15.6,18.7,"11:47:28",1
"19/04/23","12:00",0.0,23.3,61.3,1011.9,111.3,2.6,6.5,119.6,0.46,15.5,19.0,"11:58:56",1
"19/04/23","12:10",0.0,23.8,61.0,1011.4,116.6,2.6,6.0,124.6,0.48,15.9,19.3,"12:09:44",1
"19/04/23","12:20",0.0,24.1,59.7,1011.4,115.5,2.7,6.5,124.6,0.48,15.8,19.3,"12:11:36",1
"19/04/23","12:30",0.0,24.1,58.1,1011.2,100.5,2.1,5.5,127.1,0.47,15.4,19.7,"12:20:02",1
"19/04/23","12:40",0.0,24.5,59.6,1011.2,113.6,2.6,6.2,141.7,0.48,16.2,19.6,"12:38:48",1
"19/04/23","12:50",0.0,24.4,59.6,1011.2,118.8,3.1,6.0,119.7,0.42,16.1,19.7,"12:47:04",1
"19/04/23","13:00",0.0,24.6,58.6,1010.7,114.2,2.3,5.2,131.6,0.46,16.0,19.9,"12:50:24",1
"19/04/23","13:10",0.0,24.4,57.1,1010.2,101.2,2.8,6.5,109.1,0.44,15.4,20.2,"13:02:32",1
"19/04/23","13:20",0.0,24.5,56.5,1010.2,101.7,2.1,4.7,85.2,0.38,15.3,20.2,"13:13:52",1
"19/04/23","13:30",0.0,24.4,55.8,1010.2,100.2,2.3,4.7,109.0,0.36,15.0,20.2,"13:26:56",1
"19/04/23","13:40",0.0,24.4,55.7,1010.2,94.1,2.2,5.6,122.2,0.28,15.0,20.2,"13:37:12",1
"19/04/23","13:50",0.0,24.6,55.5,1010.2,88.7,2.1,4.7,64.3,0.26,15.1,20.4,"13:42:32",1
"19/04/23","14:00",0.0,25.1,54.2,1010.4,97.0,2.0,3.6,122.9,0.30,15.2,20.4,"13:54:00",1
"19/04/23","14:10",0.0,24.8,54.8,1010.2,163.1,1.8,4.4,121.4,0.34,15.1,20.6,"14:01:36",1
"19/04/23","14:20",0.0,25.3,54.8,1010.2,163.1,2.5,5.1,129.0,0.34,15.6,20.5,"14:13:04",1
"19/04/23","14:30",0.0,24.8,53.8,1010.2,196.5,2.6,5.7,141.1,0.21,14.9,20.3,"14:20:16",1
"19/04/23","14:40",0.0,24.6,55.9,1010.0,112.9,1.7,3.5,150.3,0.18,15.3,20.5,"14:30:40",1
"19/04/23","14:50",0.0,24.9,55.4,1010.2,127.6,2.2,6.5,109.0,0.20,15.4,20.4,"14:41:04",1
"19/04/23","15:00",0.0,24.5,56.0,1009.7,128.3,2.0,4.8,120.8,0.22,15.2,20.5,"14:58:56",1
"19/04/23","15:10",0.0,24.2,56.6,1009.7,112.3,2.6,6.3,124.9,0.21,15.1,20.3,"15:03:04",1
"19/04/23","15:20",0.0,24.4,56.9,1010.0,117.4,2.8,5.4,126.0,0.23,15.3,20.5,"15:13:28",1
"19/04/23","15:30",0.0,23.9,57.4,1010.0,138.2,2.0,4.4,145.0,0.17,15.0,20.6,"15:20:08",1
"19/04/23","15:40",0.0,24.3,57.3,1009.7,120.0,2.6,4.8,125.0,0.16,15.4,20.2,"15:31:36",1
"19/04/23","15:50",0.0,23.7,57.8,1010.2,157.6,3.1,4.7,174.5,0.11,14.9,20.2,"15:48:56",1
"19/04/23","16:00",0.0,23.7,58.1,1010.2,155.6,2.5,5.1,160.0,0.13,15.0,20.3,"15:54:40",1
"19/04/23","16:10",0.0,23.6,58.8,1010.0,140.6,2.7,4.8,128.1,0.12,15.1,20.4,"16:01:28",1
"19/04/23","16:20",0.0,23.4,58.9,1010.2,156.1,2.6,5.6,120.9,0.11,15.0,20.1,"16:19:20",1
"19/04/23","16:30",0.0,23.4,60.2,1010.4,146.9,2.2,4.5,136.1,0.10,15.3,20.2,"16:27:20",1
"19/04/23","16:40",0.0,23.2,60.4,1010.4,129.0,2.7,5.0,124.0,0.10,15.2,19.9,"16:36:48",1
"19/04/23","16:50",0.0,23.2,60.6,1010.4,173.6,2.3,4.7,180.7,0.08,15.2,20.1,"16:48:48",1
"19/04/23","17:00",0.0,23.0,60.3,1010.4,196.8,2.8,5.2,217.0,0.07,14.9,19.8,"16:59:36",1
"19/04/23","17:10",0.0,22.8,61.1,1010.7,188.4,2.6,4.7,223.7,0.06,15.0,19.8,"17:03:20",1
"19/04/23","17:20",0.0,22.7,61.4,1010.4,191.1,2.2,4.2,191.4,0.05,14.9,19.7,"17:12:40",1
"19/04/23","17:30",0.0,22.6,61.6,1010.7,211.1,2.3,3.9,205.8,0.04,14.9,19.6,"17:22:40",1
"19/04/23","17:40",0.0,22.5,62.1,1011.2,206.5,2.2,4.1,212.9,0.03,14.9,19.5,"17:31:44",1
"19/04/23","17:50",0.0,22.4,63.1,1010.9,195.4,2.0,3.4,203.7,0.02,15.1,19.6,"17:45:44",1
"19/04/23","18:00",0.0,22.2,63.4,1010.9,196.4,1.6,3.6,224.8,0.01,15.0,19.4,"17:51:52",1
"19/04/23","18:10",0.0,22.0,64.3,1010.7,193.7,1.2,2.5,183.2,0.01,15.0,19.2,"18:04:48",1
"19/04/23","18:20",0.0,21.8,65.2,1010.4,166.9,1.6,3.1,146.7,0.00,15.0,19.2,"18:14:48",1
"19/04/23","18:30",0.0,21.8,65.6,1010.7,168.5,2.1,3.4,138.7,0.00,15.1,19.2,"18:27:04",1
"19/04/23","18:40",0.0,21.7,66.0,1011.2,162.2,1.6,3.2,192.3,0.00,15.1,19.0,"18:32:26",1
"19/04/23","18:50",0.0,21.6,67.1,1011.2,141.7,1.7,4.3,126.5,0.00,15.3,19.0,"18:43:20",1
"19/04/23","19:00",0.0,21.4,66.7,1011.4,126.2,1.6,3.9,118.9,0.00,15.0,19.0,"18:55:56",1
"19/04/23","19:10",0.0,21.2,66.7,1011.2,133.9,1.6,3.5,151.9,0.00,14.8,18.7,"19:02:18",1
"19/04/23","19:20",0.0,21.1,67.1,1011.6,134.2,1.3,3.3,119.9,0.00,14.8,18.8,"19:14:40",1
"19/04/23","19:30",0.0,21.0,67.1,1011.4,135.7,1.6,3.6,148.0,0.00,14.7,18.8,"19:20:02",1
"19/04/23","19:40",0.0,21.0,66.9,1011.4,127.7,1.7,3.5,135.8,0.00,14.7,18.6,"19:34:00",1
"19/04/23","19:50",0.0,21.0,67.0,1011.9,105.0,1.5,3.4,126.5,0.00,14.7,18.6,"19:41:12",1
"19/04/23","20:00",0.0,20.8,67.6,1011.6,84.3,1.1,2.4,97.1,0.00,14.6,18.6,"19:59:52",1
"19/04/23","20:10",0.0,20.5,68.9,1011.9,75.2,1.1,2.6,57.2,0.00,14.6,18.5,"20:09:20",1
"19/04/23","20:20",0.0,20.3,69.7,1011.4,51.3,1.0,2.9,352.1,0.00,14.6,18.6,"20:12:48",1
"19/04/23","20:30",0.0,20.1,70.5,1011.9,90.7,0.7,1.9,104.1,0.00,14.6,18.3,"20:28:32",1
"19/04/23","20:40",0.0,20.0,71.0,1011.9,75.5,0.8,2.8,119.3,0.00,14.6,18.2,"20:31:12",1
"19/04/23","20:50",0.0,20.0,71.5,1011.9,58.5,0.8,2.1,115.7,0.00,14.7,18.1,"20:42:32",1
"19/04/23","21:00",0.0,20.0,71.4,1011.9,65.0,1.0,2.8,66.3,0.00,14.7,18.1,"20:54:32",1
"19/04/23","21:10",0.0,20.0,71.4,1011.9,69.2,1.1,2.6,106.8,0.00,14.7,17.8,"21:07:20",1
"19/04/23","21:20",0.0,19.9,71.3,1011.9,32.4,0.8,2.2,348.0,0.00,14.6,18.2,"21:12:40",1
"19/04/23","21:30",0.0,19.8,71.7,1012.1,40.1,0.7,2.1,8.4,0.00,14.6,18.1,"21:24:00",1
"19/04/23","21:40",0.0,19.8,72.1,1012.1,60.1,1.0,2.1,99.7,0.00,14.7,18.0,"21:30:08",1
"19/04/23","21:50",0.0,19.8,72.3,1012.1,61.0,0.8,2.1,88.8,0.00,14.7,17.8,"21:44:24",1
"19/04/23","22:00",0.0,19.6,72.7,1012.3,14.0,0.5,1.3,56.4,0.00,14.6,17.7,"21:54:16",1
"19/04/23","22:10",0.0,19.6,73.2,1012.3,86.9,0.7,2.4,118.1,0.00,14.7,17.7,"22:09:20",1
"19/04/23","22:20",0.0,19.6,73.7,1012.6,61.2,0.6,1.6,89.0,0.00,14.8,17.8,"22:14:08",1
"19/04/23","22:30",0.0,19.6,73.6,1012.6,47.0,0.8,1.7,75.4,0.00,14.8,17.8,"22:29:28",1
"19/04/23","22:40",0.0,19.6,73.2,1012.8,88.7,0.8,2.0,118.3,0.00,14.7,17.7,"22:34:08",1
"19/04/23","22:50",0.0,19.7,73.0,1012.8,59.9,1.0,2.0,107.8,0.00,14.8,17.6,"22:41:44",1
"19/04/23","23:00",0.0,19.5,73.9,1012.6,7.8,0.6,1.7,88.5,0.00,14.8,17.5,"22:58:00",1
"19/04/23","23:10",0.0,19.5,74.5,1012.6,356.9,0.5,1.1,330.1,0.00,14.9,17.5,"23:02:16",1
"19/04/23","23:20",0.0,19.5,74.4,1012.6,74.3,0.8,1.9,146.0,0.00,14.9,17.5,"23:16:32",1
"19/04/23","23:30",0.0,19.4,74.4,1012.6,55.1,0.6,1.6,113.7,0.00,14.8,17.5,"23:25:44",1
"19/04/23","23:40",0.0,19.3,75.4,1012.6,59.8,0.6,1.1,341.1,0.00,14.9,17.4,"23:37:52",1
"19/04/23","23:50",0.0,19.2,75.4,1012.3,334.2,0.7,1.3,348.7,0.00,14.8,17.4,"23:42:56",1
"19/04/23","24:00",0.0,19.1,76.0,1012.3,345.3,0.7,1.4,349.5,0.00,14.8,17.4,"23:50:24",1
